Date String (YYYY-MM-DD hh:mm:ss) UTC,Instrument flags,absolute air pressure of the measurement (hPa),sample flow rate (lpm),inlet stack bypass flow (lpm),air temperature of the measurement (°C),ambient temperature measured by the external sensor (°C),aerosol sample conditioner tube jacket temperature (°C),OPC LED temperature (°C),internal box temperature (°C),relative humidity of the measurement (%),span deviation,mass concentration of particles derived from Lorenz-Mie calculation of OPC scattering (μg/m³),mass concentration of particles derived from Lorenz-Mie calculation of OPC scattering (μg/m³),mass concentration of particles derived from Lorenz-Mie calculation of OPC scattering (μg/m³)
DateTimeUTC,F1_M11,P_M11,Q1_M11,Q2_M11,T1_M11,T2_M11,T3_M11,T4_M11,T5_M11,U1_M11,ZSPAN_M11,X0_M11,X2_M11,X1_M11
2024-04-01 02:00:00,SystemResetWarning,0816.3,5.00,000.00,022.9,022.2,000.0,031.5,024.7,21.6,0000.0,0001.21,0000.64,0000.36
2024-04-01 02:01:00,SystemResetWarning,0816.3,4.99,000.00,022.9,022.2,000.0,031.5,024.7,21.7,0000.0,0001.29,0000.66,0000.35
2024-04-01 02:02:00,SystemResetWarning,0816.3,5.02,000.00,022.9,022.2,000.0,031.5,024.7,21.6,0000.0,0001.33,0000.68,0000.34
2024-04-01 02:03:00,SystemResetWarning,0816.3,5.00,000.00,022.9,022.2,000.0,031.5,024.7,21.7,0000.0,0001.39,0000.72,0000.35
2024-04-01 02:04:00,SystemResetWarning,0816.3,4.99,000.00,022.9,022.2,000.0,031.5,024.7,21.8,0000.0,0001.36,0000.71,0000.35
2024-04-01 02:05:00,SystemResetWarning,0816.4,4.99,000.00,022.9,022.2,000.0,031.4,024.7,21.8,0000.0,0001.38,0000.70,0000.36
2024-04-01 02:06:00,SystemResetWarning,0816.4,5.00,000.00,022.9,022.2,000.0,031.4,024.8,21.8,0000.0,0001.44,0000.72,0000.37
2024-04-01 02:07:00,SystemResetWarning,0816.4,5.00,000.00,022.9,022.2,000.0,031.4,024.8,21.7,0000.0,0001.35,0000.70,0000.37
2024-04-01 02:08:00,SystemResetWarning,0816.4,5.00,000.00,022.9,022.2,000.0,031.4,024.8,21.4,0000.0,0001.28,0000.69,0000.39
2024-04-01 02:09:00,SystemResetWarning,0816.5,5.00,000.00,022.9,022.2,000.0,031.4,024.8,21.8,0000.0,0001.20,0000.68,0000.40
2024-04-01 02:10:00,SystemResetWarning,0816.5,5.01,000.00,022.9,022.2,000.0,031.4,024.8,21.7,0000.0,0001.18,0000.68,0000.40
2024-04-01 02:11:00,SystemResetWarning,0816.5,5.01,000.00,022.9,022.2,000.0,031.4,024.8,21.7,0000.0,0001.62,0000.65,0000.40
2024-04-01 02:12:00,SystemResetWarning,0816.5,5.01,000.00,022.9,022.2,000.0,031.4,024.8,21.5,0000.0,0002.82,0000.65,0000.41
2024-04-01 02:13:00,SystemResetWarning,0816.5,5.01,000.00,022.9,022.2,000.0,031.4,024.8,21.5,0000.0,0002.81,0000.65,0000.40
2024-04-01 02:14:00,SystemResetWarning,0816.5,5.00,000.00,022.9,022.2,000.0,031.4,024.8,21.4,0000.0,0002.81,0000.63,0000.40
2024-04-01 02:15:00,SystemResetWarning,0816.5,4.99,000.00,022.9,022.2,000.0,031.4,024.8,21.2,0000.0,0002.85,0000.64,0000.41
2024-04-01 02:16:00,SystemResetWarning,0816.6,5.00,000.00,022.9,022.2,000.0,031.4,024.8,21.1,0000.0,0002.92,0000.68,0000.42
2024-04-01 02:17:00,SystemResetWarning,0816.6,5.00,000.00,022.9,022.2,000.0,031.4,024.8,21.1,0000.0,0002.86,0000.67,0000.43
2024-04-01 02:18:00,SystemResetWarning,0816.6,5.01,000.00,022.9,022.2,000.0,031.4,024.8,21.2,0000.0,0002.91,0000.69,0000.43
2024-04-01 02:19:00,SystemResetWarning,0816.6,5.01,000.00,022.9,022.2,000.0,031.4,024.8,21.1,0000.0,0002.91,0000.69,0000.43
2024-04-01 02:20:00,SystemResetWarning,0816.6,5.00,000.00,022.9,022.2,000.0,031.4,024.8,21.3,0000.0,0003.06,0000.72,0000.43
2024-04-01 02:21:00,SystemResetWarning,0816.7,4.99,000.00,022.9,022.2,000.0,031.4,024.8,21.3,0000.0,0003.18,0000.74,0000.42
2024-04-01 02:22:00,SystemResetWarning,0816.7,4.99,000.00,022.9,022.2,000.0,031.4,024.8,21.3,0000.0,0002.98,0000.74,0000.42
2024-04-01 02:23:00,SystemResetWarning,0816.7,5.01,000.00,022.9,022.2,000.0,031.4,024.8,21.4,0000.0,0001.50,0000.74,0000.42
2024-04-01 02:24:00,SystemResetWarning,0816.8,5.01,000.00,022.9,022.2,000.0,031.4,024.8,21.4,0000.0,0001.50,0000.74,0000.43
2024-04-01 02:25:00,SystemResetWarning,0816.9,5.00,000.00,022.9,022.2,000.0,031.4,024.8,21.4,0000.0,0001.46,0000.72,0000.42
2024-04-01 02:26:00,SystemResetWarning,0816.9,5.01,000.00,022.9,022.2,000.0,031.4,024.8,20.8,0000.0,0001.45,0000.71,0000.41
2024-04-01 02:27:00,SystemResetWarning,0816.9,5.00,000.00,022.9,022.2,000.0,031.4,024.8,21.4,0000.0,0001.82,0000.64,0000.39
2024-04-01 02:28:00,SystemResetWarning,0816.9,4.99,000.00,022.9,022.2,000.0,031.4,024.8,21.1,0000.0,0002.14,0000.62,0000.38
2024-04-01 02:29:00,SystemResetWarning,0816.8,5.00,000.00,022.9,022.2,000.0,031.5,024.8,20.3,0000.0,0002.05,0000.58,0000.36
2024-04-01 02:30:00,SystemResetWarning,0816.9,5.00,000.00,022.9,022.2,000.0,031.5,024.8,20.2,0000.0,0002.15,0000.60,0000.35
2024-04-01 02:31:00,SystemResetWarning,0816.9,4.99,000.00,022.9,022.2,000.0,031.5,024.8,19.7,0000.0,0002.15,0000.57,0000.34
2024-04-01 02:32:00,SystemResetWarning,0816.9,5.00,000.00,022.9,022.2,000.0,031.5,024.8,19.6,0000.0,0001.99,0000.53,0000.33
2024-04-01 02:33:00,SystemResetWarning,0816.9,5.00,000.00,022.9,022.2,000.0,031.5,024.8,18.1,0000.0,0001.88,0000.50,0000.32
2024-04-01 02:34:00,SystemResetWarning,0816.9,5.01,000.00,022.9,022.2,000.0,031.5,024.7,18.3,0000.0,0001.88,0000.49,0000.30
2024-04-01 02:35:00,SystemResetWarning,0816.9,5.01,000.00,022.9,022.1,000.0,031.5,024.7,17.8,0000.0,0001.90,0000.47,0000.28
2024-04-01 02:36:00,SystemResetWarning,0816.9,5.00,000.00,022.9,022.1,000.0,031.5,024.7,17.2,0000.0,0002.83,0000.44,0000.26
2024-04-01 02:37:00,SystemResetWarning,0817.0,4.99,000.00,022.9,022.1,000.0,031.5,024.7,17.0,0000.0,0004.37,0000.42,0000.23
2024-04-01 02:38:00,SystemResetWarning,0817.0,5.00,000.00,022.8,022.1,000.0,031.4,024.7,17.1,0000.0,0004.79,0000.39,0000.21
2024-04-01 02:39:00,SystemResetWarning,0817.0,5.00,000.00,022.8,022.1,000.0,031.4,024.7,16.7,0000.0,0004.04,0000.35,0000.18
2024-04-01 02:40:00,SystemResetWarning,0817.1,5.00,000.00,022.8,022.0,000.0,031.4,024.7,16.9,0000.0,0004.00,0000.32,0000.15
2024-04-01 02:41:00,SystemResetWarning,0817.1,5.01,000.00,022.8,022.0,000.0,031.4,024.6,16.8,0000.0,0003.91,0000.27,0000.13
2024-04-01 02:42:00,SystemResetWarning,0817.1,5.00,000.00,022.8,022.0,000.0,031.4,024.6,16.6,0000.0,0003.68,0000.23,0000.11
2024-04-01 02:43:00,SystemResetWarning,0817.1,5.01,000.00,022.8,022.0,000.0,031.4,024.6,16.4,0000.0,0003.70,0000.22,0000.09
2024-04-01 02:44:00,SystemResetWarning,0817.1,5.00,000.00,022.8,022.0,000.0,031.4,024.6,16.6,0000.0,0003.69,0000.20,0000.08
2024-04-01 02:45:00,SystemResetWarning,0817.1,5.00,000.00,022.8,022.0,000.0,031.4,024.6,16.4,0000.0,0003.63,0000.17,0000.07
2024-04-01 02:46:00,SystemResetWarning,0817.1,5.00,000.00,022.8,022.0,000.0,031.4,024.6,16.4,0000.0,0003.48,0000.14,0000.06
2024-04-01 02:47:00,SystemResetWarning,0817.1,5.00,000.00,022.8,022.0,000.0,031.4,024.6,16.3,0000.0,0002.55,0000.14,0000.05
2024-04-01 02:48:00,SystemResetWarning,0817.1,5.01,000.00,022.8,022.0,000.0,031.4,024.6,16.4,0000.0,0000.90,0000.12,0000.05
2024-04-01 02:49:00,SystemResetWarning,0817.1,5.00,000.00,022.7,022.0,000.0,031.4,024.6,16.4,0000.0,0000.38,0000.12,0000.05
2024-04-01 02:50:00,SystemResetWarning,0817.2,5.01,000.00,022.7,022.0,000.0,031.4,024.6,16.5,0000.0,0000.30,0000.12,0000.05
2024-04-01 02:51:00,SystemResetWarning,0817.3,5.00,000.00,022.7,022.0,000.0,031.4,024.6,16.3,0000.0,0000.30,0000.12,0000.05
2024-04-01 02:52:00,SystemResetWarning,0817.3,5.00,000.00,022.7,022.0,000.0,031.3,024.6,16.1,0000.0,0000.30,0000.12,0000.05
2024-04-01 02:53:00,SystemResetWarning,0817.3,5.00,000.00,022.7,022.0,000.0,031.3,024.5,16.0,0000.0,0000.25,0000.10,0000.05
2024-04-01 02:54:00,SystemResetWarning,0817.3,4.99,000.00,022.7,021.9,000.0,031.3,024.5,15.7,0000.0,0000.21,0000.09,0000.05
2024-04-01 02:55:00,SystemResetWarning,0817.3,5.00,000.00,022.7,021.9,000.0,031.3,024.5,15.7,0000.0,0000.16,0000.08,0000.05
2024-04-01 02:56:00,SystemResetWarning,0817.4,5.00,000.00,022.7,021.9,000.0,031.3,024.5,16.0,0000.0,0000.20,0000.10,0000.06
2024-04-01 02:57:00,SystemResetWarning,0817.4,5.00,000.00,022.7,021.9,000.0,031.3,024.5,16.0,0000.0,0000.24,0000.11,0000.06
2024-04-01 02:58:00,SystemResetWarning,0817.4,4.99,000.00,022.7,021.9,000.0,031.3,024.5,15.8,0000.0,0000.33,0000.11,0000.06
2024-04-01 02:59:00,SystemResetWarning,0817.4,5.00,000.00,022.7,021.9,000.0,031.3,024.5,15.7,0000.0,0000.30,0000.11,0000.06
